Location: Arboyeti
(42.1122°N, 44.6017°E)
Time: 16:31:40
(UTC+00:00)

Cosmos 1076 Rocket - Pass Details

Date: 19 April 2021
Orbit: 589 x 612 km, 82.5° (Epoch: 07 May)

Event Time Altitude Azimuth Distance (km) Brightness Sun altitude
Rises 17:40:33 0° 350° (N) 2,877 7.7 -19.5°
Reaches altitude 10° 17:42:47 10° 350° (N) 1,965 6.8 -19.9°
Maximum altitude 17:47:08 81° 265° (W) 616 3.5 -20.5°
Enters shadow 17:48:34 42° 182° (S) 869 4.0 -20.7°
